CDT,Max TemperatureF,Mean TemperatureF,Min TemperatureF,Max Dew PointF,MeanDew PointF,Min DewpointF,Max Humidity, Mean Humidity, Min Humidity, Max Sea Level PressureIn, Mean Sea Level PressureIn, Min Sea Level PressureIn, Max VisibilityMiles, Mean VisibilityMiles, Min VisibilityMiles, Max Wind SpeedMPH, Mean Wind SpeedMPH, Max Gust SpeedMPH,PrecipitationIn, CloudCover, Events, WindDirDegrees
2012-5-1,86,73,60,68,63,59,100,74,48,30.02,29.97,29.87,10,5,0,26,9,36,0.01,3,Fog,172
2012-5-2,89,80,70,67,64,62,79,62,44,30.01,29.97,29.91,10,10,10,22,9,29,0.00,0,,203
2012-5-3,86,77,67,66,63,59,87,66,45,30.08,30.02,29.98,10,10,10,21,9,28,0.00,0,,185
2012-5-4,86,76,66,72,68,64,93,77,61,30.03,29.95,29.88,10,9,2,21,8,31,0.91,4,Rain-Thunderstorm,195
2012-5-5,87,76,64,72,65,61,93,74,55,29.97,29.92,29.89,10,7,1,25,3,33,1.01,5,Rain-Thunderstorm,245
2012-5-6,91,80,68,70,67,63,93,70,47,29.97,29.91,29.86,10,9,4,13,3,17,0.00,1,,134
2012-5-7,83,75,66,66,64,63,93,74,55,29.88,29.84,29.79,10,10,7,16,5,21,0.00,4,,287
2012-5-8,76,67,57,64,55,45,87,64,41,29.95,29.91,29.85,10,10,10,16,7,21,0.00,4,,313
2012-5-9,72,62,52,49,46,42,89,62,35,29.95,29.92,29.89,10,10,10,18,8,25,0.00,1,,308
2012-5-10,73,61,48,48,41,33,86,56,26,30.06,30.00,29.94,10,10,10,13,3,16,0.00,0,,34
2012-5-11,77,62,47,53,46,43,93,62,31,30.18,30.13,30.06,10,10,10,12,3,16,0.00,0,,118
2012-5-12,75,65,55,60,53,47,87,63,38,30.23,30.18,30.16,10,9,6,9,4,13,0.03,4,Rain,88
2012-5-13,76,68,59,59,57,55,97,75,53,30.16,30.09,30.01,10,8,5,20,8,26,0.01,6,,43
2012-5-14,80,70,59,59,57,53,84,63,42,30.07,30.03,29.99,10,9,6,13,5,20,0.00,6,,26
2012-5-15,85,71,56,59,53,45,93,59,25,30.04,30.00,29.95,10,8,2,12,3,18,0.00,1,,291
2012-5-16,87,70,53,57,52,44,89,62,34,30.01,29.97,29.92,10,10,10,16,6,24,0.00,0,,315
2012-5-17,81,68,55,51,46,41,72,51,30,30.08,30.03,30.00,10,10,10,15,7,20,0.00,0,,49
2012-5-18,87,72,56,61,55,48,77,56,35,30.06,30.02,29.96,10,10,10,9,4,13,0.00,1,,80
2012-5-19,92,78,63,63,60,58,87,60,32,30.09,30.04,30.01,10,10,7,10,3,18,0.00,1,,160
2012-5-20,92,77,62,64,61,56,87,59,30,30.13,30.07,29.99,10,9,4,23,4,28,0.00,2,Thunderstorm,193
2012-5-21,80,69,58,63,58,48,87,69,51,30.06,30.04,29.99,10,10,6,16,7,23,0.00,3,,329
2012-5-22,79,66,52,52,47,42,77,54,31,30.04,29.97,29.89,10,10,10,15,5,21,0.00,0,,345
2012-5-23,83,67,51,56,52,48,89,64,39,29.92,29.87,29.80,10,10,10,13,3,16,0.00,0,,157
2012-5-24,91,73,55,62,57,53,86,61,36,29.87,29.81,29.73,10,10,8,20,8,29,0.00,0,,166
2012-5-25,92,82,71,68,63,58,73,54,34,30.04,29.97,29.87,10,10,9,15,8,20,0.00,1,,206
2012-5-26,94,81,67,67,65,62,81,59,36,30.13,30.06,30.01,10,10,10,14,5,20,0.00,0,,192
2012-5-27,94,81,68,68,63,55,84,56,28,30.06,30.00,29.94,10,10,9,15,4,22,0.00,0,,208
2012-5-28,94,81,67,68,65,64,93,66,39,29.97,29.89,29.82,10,10,7,20,7,24,0.00,1,,207
2012-5-29,86,75,63,68,63,57,78,61,43,29.89,29.85,29.80,10,10,9,16,5,23,T,3,Rain-Thunderstorm,231
2012-5-30,83,71,58,59,54,47,93,62,30,29.98,29.89,29.86,10,10,10,22,3,30,T,1,Rain,314
2012-5-31,85,70,54,66,60,51,93,64,34,29.89,29.75,29.68,10,9,1,24,6,30,0.32,5,Rain-Thunderstorm,13